Weather History for Cody, WY

Change the Weather History Date:

Friday, October 7, 2011

  Actual Average Record
Temperature  
Mean Temperature 47 °F -  
Max Temperature 53 °F 65 °F 87 °F (1922)
Min Temperature 41 °F 36 °F 17 °F (1921)
Degree Days  
Heating Degree Days 18    
Moisture  
Dew Point 27 °F    
Average Humidity 46    
Maximum Humidity 70    
Minimum Humidity 38    
Precipitation  
Precipitation 0.06 in - - ()
Sea Level Pressure  
Sea Level Pressure 29.66 in    
Wind  
Wind Speed 13 mph (SW)    
Max Wind Speed 23 mph    
Max Gust Speed 39 mph    
Visibility 10 miles    
Events      
Averages and records for this station are not official NWS values.
T = Trace of Precipitation, MM = Missing Value Source: NWS Daily Summary

Daily Weather History Graph

Daily Weather History Graph

Search for Another Location

Airport:

Trip Planner

Search our weather history database for the weather conditions in past years. The results will help you decide how hot, cold, wet, or windy it might be!

Date:

Astronomy

Oct. 07, 2011 Rise Set
Actual Time 7:21 AM MDT 6:46 PM MDT
Civil Twilight 6:51 AM MDT 7:15 PM MDT
Nautical Twilight 6:18 AM MDT 7:48 PM MDT
Astronomical Twilight 5:44 AM MDT 8:22 PM MDT
Moon 4:38 PM MDT (10/7) 3:04 AM MDT (10/7)
Length of Visible Light 12h 23m
Length of Day
11h 25m
Waxing Gibbous, 84% of the Moon is Illuminated
Oct 7
Waxing Gibbous
Oct 11
Full
Oct 19
Last Quarter
Oct 26
New
Nov 2
First Quarter

Hourly Weather History & Observations

Time (MDT) Temp. Windchill Dew Point Humidity Pressure Visibility Wind Dir Wind Speed Gust Speed Precip Events Conditions
12:15 AM 41.0 °F 34.7 °F 32.0 °F 70% 29.52 in 10.0 mi WSW 10.4 mph - 0.02 in   Overcast
12:35 AM 42.8 °F 39.3 °F 32.0 °F 66% 29.51 in 10.0 mi WSW 5.8 mph - 0.04 in   Overcast
12:55 AM 42.8 °F 38.6 °F 30.2 °F 61% 29.50 in 10.0 mi WSW 6.9 mph - 0.04 in   Overcast
1:35 AM 44.6 °F 39.2 °F 30.2 °F 57% 29.49 in 10.0 mi WSW 10.4 mph - N/A   Overcast
1:55 AM 44.6 °F 40.2 °F 28.4 °F 53% 29.49 in 10.0 mi West 8.1 mph - N/A   Overcast
2:15 AM 44.6 °F 39.2 °F 28.4 °F 53% 29.49 in 10.0 mi WSW 10.4 mph 16.1 mph N/A   Overcast
2:35 AM 44.6 °F 40.2 °F 28.4 °F 53% 29.48 in 10.0 mi WSW 8.1 mph 17.3 mph N/A   Overcast
2:55 AM 46.4 °F 41.1 °F 28.4 °F 50% 29.47 in 10.0 mi WSW 11.5 mph 19.6 mph N/A   Overcast
3:15 AM 46.4 °F 41.9 °F 26.6 °F 46% 29.48 in 10.0 mi WSW 9.2 mph - N/A   Overcast
3:35 AM 46.4 °F 41.5 °F 26.6 °F 46% 29.48 in 10.0 mi SW 10.4 mph 18.4 mph N/A   Overcast
3:55 AM 46.4 °F 40.7 °F 26.6 °F 46% 29.48 in 10.0 mi SW 12.7 mph 21.9 mph N/A   Overcast
4:15 AM 46.4 °F 40.4 °F 26.6 °F 46% 29.48 in 10.0 mi WSW 13.8 mph 21.9 mph N/A   Overcast
4:35 AM 46.4 °F 40.7 °F 26.6 °F 46% 29.48 in 10.0 mi SW 12.7 mph 27.6 mph N/A   Overcast
4:55 AM 46.4 °F 39.8 °F 26.6 °F 46% 29.49 in 10.0 mi WSW 16.1 mph 24.2 mph N/A   Overcast
5:15 AM 46.4 °F 40.1 °F 26.6 °F 46% 29.50 in 10.0 mi SW 15.0 mph 28.8 mph N/A   Overcast
5:35 AM 46.4 °F 40.1 °F 26.6 °F 46% 29.52 in 10.0 mi SW 15.0 mph 21.9 mph N/A   Overcast
6:15 AM 46.4 °F 41.1 °F 24.8 °F 43% 29.54 in 10.0 mi SW 11.5 mph 27.6 mph N/A   Overcast
6:35 AM 46.4 °F 40.7 °F 24.8 °F 43% 29.55 in 10.0 mi West 12.7 mph 25.3 mph N/A   Overcast
6:55 AM 44.6 °F 36.9 °F 26.6 °F 49% 29.56 in 10.0 mi SW 18.4 mph 36.8 mph 0.01 in   Overcast
7:15 AM 46.4 °F 39.5 °F 24.8 °F 43% 29.57 in 10.0 mi SW 17.3 mph 26.5 mph N/A   Overcast
7:35 AM 44.6 °F 36.1 °F 24.8 °F 46% 29.58 in 10.0 mi WSW 21.9 mph 33.4 mph N/A   Overcast
7:55 AM 42.8 °F 35.4 °F 26.6 °F 53% 29.60 in 10.0 mi SW 15.0 mph 31.1 mph N/A   Overcast
8:15 AM 42.8 °F 34.8 °F 26.6 °F 53% 29.61 in 9.0 mi SW 17.3 mph 26.5 mph 0.01 in   Overcast
8:35 AM 42.8 °F 34.8 °F 26.6 °F 53% 29.61 in 10.0 mi SW 17.3 mph 34.5 mph 0.01 in   Overcast
8:55 AM 44.6 °F 37.2 °F 26.6 °F 49% 29.62 in 10.0 mi SW 17.3 mph 31.1 mph 0.01 in   Overcast
9:15 AM 44.6 °F 37.2 °F 24.8 °F 46% 29.63 in 10.0 mi WSW 17.3 mph 28.8 mph N/A   Overcast
9:35 AM 46.4 °F 39.0 °F 24.8 °F 43% 29.63 in 10.0 mi West 19.6 mph 34.5 mph N/A   Overcast
9:55 AM 46.4 °F 40.1 °F 24.8 °F 43% 29.64 in 10.0 mi WSW 15.0 mph 26.5 mph N/A   Overcast
10:15 AM 46.4 °F 40.1 °F 26.6 °F 46% 29.65 in 10.0 mi WSW 15.0 mph 33.4 mph N/A   Overcast
10:35 AM 48.2 °F - 26.6 °F 43% 29.67 in 10.0 mi SW 18.4 mph 33.4 mph N/A   Overcast
10:55 AM 48.2 °F - 26.6 °F 43% 29.67 in 10.0 mi SW 18.4 mph 31.1 mph N/A   Overcast
11:35 AM 48.2 °F - 26.6 °F 43% 29.68 in 10.0 mi SW 23.0 mph 34.5 mph N/A   Overcast
11:55 AM 50.0 °F - 26.6 °F 40% 29.68 in 10.0 mi SW 17.3 mph 34.5 mph N/A   Overcast
12:15 PM 50.0 °F - 26.6 °F 40% 29.69 in 10.0 mi SW 19.6 mph 34.5 mph N/A   Overcast
12:35 PM 50.0 °F - 26.6 °F 40% 29.70 in 10.0 mi SW 18.4 mph 26.5 mph N/A   Overcast
12:55 PM 51.8 °F - 26.6 °F 38% 29.70 in 10.0 mi SW 19.6 mph 34.5 mph N/A   Mostly Cloudy
1:15 PM 51.8 °F - 26.6 °F 38% 29.70 in 10.0 mi SW 21.9 mph 33.4 mph N/A   Mostly Cloudy
1:35 PM 50.0 °F - 26.6 °F 40% 29.71 in 10.0 mi SW 20.7 mph 31.1 mph N/A   Scattered Clouds
1:55 PM 51.8 °F - 28.4 °F 41% 29.71 in 10.0 mi SW 20.7 mph 35.7 mph N/A   Clear
2:15 PM 51.8 °F - 28.4 °F 41% 29.70 in 10.0 mi SW 20.7 mph 29.9 mph N/A   Clear
2:35 PM 51.8 °F - 28.4 °F 41% 29.71 in 10.0 mi SW 21.9 mph 39.1 mph N/A   Clear
3:15 PM 53.6 °F - 28.4 °F 38% 29.73 in 10.0 mi SW 17.3 mph 29.9 mph N/A   Clear
3:35 PM 51.8 °F - 28.4 °F 41% 29.74 in 10.0 mi SW 11.5 mph 27.6 mph N/A   Partly Cloudy
3:55 PM 51.8 °F - 28.4 °F 41% 29.75 in 10.0 mi SW 16.1 mph 24.2 mph N/A   Mostly Cloudy
4:15 PM 51.8 °F - 28.4 °F 41% 29.77 in 10.0 mi WSW 16.1 mph 25.3 mph N/A   Mostly Cloudy
4:35 PM 51.8 °F - 28.4 °F 41% 29.77 in 10.0 mi SW 15.0 mph 25.3 mph N/A   Mostly Cloudy
4:55 PM 51.8 °F - 28.4 °F 41% 29.79 in 10.0 mi SW 15.0 mph 29.9 mph N/A   Overcast
5:15 PM 50.0 °F - 28.4 °F 43% 29.79 in 10.0 mi SW 16.1 mph 27.6 mph N/A   Overcast
5:35 PM 50.0 °F - 28.4 °F 43% 29.81 in 10.0 mi WSW 11.5 mph 23.0 mph N/A   Overcast
5:55 PM 50.0 °F - 28.4 °F 43% 29.81 in 10.0 mi SW 16.1 mph 25.3 mph N/A   Overcast
6:15 PM 50.0 °F - 28.4 °F 43% 29.82 in 10.0 mi SW 12.7 mph 24.2 mph N/A   Overcast
6:35 PM 50.0 °F - 28.4 °F 43% 29.83 in 10.0 mi WSW 13.8 mph 18.4 mph N/A   Overcast
6:55 PM 50.0 °F - 28.4 °F 43% 29.84 in 10.0 mi SW 11.5 mph 18.4 mph N/A   Overcast
7:15 PM 50.0 °F - 28.4 °F 43% 29.86 in 10.0 mi WSW 8.1 mph - N/A   Overcast
7:35 PM 50.0 °F - 28.4 °F 43% 29.87 in 10.0 mi West 6.9 mph - N/A   Overcast
7:55 PM 50.0 °F - 28.4 °F 43% 29.88 in 10.0 mi WSW 9.2 mph - N/A   Overcast
8:15 PM 48.2 °F - 28.4 °F 46% 29.89 in 10.0 mi WSW 9.2 mph - N/A   Overcast
8:35 PM 48.2 °F - 28.4 °F 46% 29.90 in 10.0 mi SW 6.9 mph - N/A   Overcast
8:55 PM 48.2 °F - 28.4 °F 46% 29.91 in 10.0 mi SW 5.8 mph 16.1 mph N/A   Overcast
9:15 PM 48.2 °F - 28.4 °F 46% 29.92 in 10.0 mi NW 4.6 mph - N/A   Overcast
9:35 PM 46.4 °F 43.5 °F 30.2 °F 53% 29.93 in 10.0 mi NNE 5.8 mph - N/A   Overcast
9:55 PM 46.4 °F - 30.2 °F 53% 29.94 in 10.0 mi Calm Calm - N/A   Overcast
10:15 PM 46.4 °F - 30.2 °F 53% 29.95 in 10.0 mi Calm Calm - N/A   Overcast
10:35 PM 46.4 °F 45.2 °F 32.0 °F 57% 29.96 in 10.0 mi East 3.5 mph - N/A   Overcast
10:55 PM 46.4 °F 43.5 °F 32.0 °F 57% 29.97 in 10.0 mi NE 5.8 mph - N/A   Overcast
11:15 PM 44.6 °F 42.2 °F 33.8 °F 66% 29.98 in 10.0 mi North 4.6 mph - N/A   Overcast
11:35 PM 44.6 °F 40.7 °F 33.8 °F 66% 29.98 in 10.0 mi NNW 6.9 mph - N/A   Mostly Cloudy
11:55 PM 44.6 °F 42.2 °F 33.8 °F 66% 29.99 in 10.0 mi North 4.6 mph - N/A   Overcast